N77PC KSGF-KMCI

Flight info

Callsign N77PC
Flight time 0h 34m
Altitude 24000
Route DCT TYGER MHOMS3
Aircraft C700/M-SBDGHM1RWXY/LB2

Departure

Time 2026-05-07 15:02
Airport Springfield Branson National Airport (KSGF)

Arrival

Time 2026-05-07 15:36
Airport Kansas City International Airport (KMCI)
Time Latitude Longitude Altitude Speed Heading
2026-05-07 14:49 37.24165 -93.38408 1268 ft 0 kts 280°
2026-05-07 14:59 37.24174 -93.38408 1268 ft 5 kts 11°
2026-05-07 14:59 37.24280 -93.38403 1268 ft 25 kts 12°
2026-05-07 14:59 37.24478 -93.38285 1268 ft 32 kts 31°
2026-05-07 14:59 37.24671 -93.38191 1267 ft 30 kts 22°
2026-05-07 15:00 37.24877 -93.38097 1267 ft 33 kts 13°
2026-05-07 15:00 37.25100 -93.38000 1266 ft 35 kts 22°
2026-05-07 15:00 37.25301 -93.37925 1265 ft 13 kts 328°
2026-05-07 15:00 37.25308 -93.37948 1265 ft 0 kts 287°
2026-05-07 15:01 37.25315 -93.37973 1264 ft 11 kts 289°
2026-05-07 15:01 37.25294 -93.38058 1264 ft 0 kts 204°
2026-05-07 15:02 37.25210 -93.38099 1265 ft 53 kts 200°
2026-05-07 15:02 37.24535 -93.38431 1403 ft 139 kts 201°
2026-05-07 15:02 37.23593 -93.38968 2505 ft 167 kts 206°
2026-05-07 15:02 37.22420 -93.39577 3691 ft 194 kts 204°
2026-05-07 15:03 37.21092 -93.40251 5136 ft 218 kts 203°
2026-05-07 15:03 37.19596 -93.40976 6561 ft 243 kts 202°
2026-05-07 15:03 37.18001 -93.41928 7876 ft 263 kts 220°
2026-05-07 15:03 37.17071 -93.43821 9726 ft 257 kts 260°
2026-05-07 15:04 37.17220 -93.46039 11311 ft 273 kts 290°
2026-05-07 15:04 37.18417 -93.47965 12859 ft 292 kts 322°
2026-05-07 15:04 37.20362 -93.48873 14561 ft 313 kts 343°
2026-05-07 15:04 37.22671 -93.49292 15007 ft 355 kts 348°
2026-05-07 15:05 37.25195 -93.49703 15019 ft 373 kts 347°
2026-05-07 15:05 37.27747 -93.50360 15015 ft 375 kts 340°
2026-05-07 15:05 37.30165 -93.51425 15961 ft 357 kts 334°
2026-05-07 15:05 37.32384 -93.52494 18563 ft 329 kts 335°
2026-05-07 15:06 37.34536 -93.53353 20409 ft 327 kts 336°
2026-05-07 15:06 37.36763 -93.54197 21419 ft 338 kts 336°
2026-05-07 15:06 37.39021 -93.55100 22580 ft 344 kts 334°
2026-05-07 15:06 37.41314 -93.56047 23715 ft 351 kts 334°
2026-05-07 15:07 37.43731 -93.57045 23995 ft 381 kts 335°
2026-05-07 15:07 37.46366 -93.58113 24000 ft 414 kts 335°
2026-05-07 15:07 37.49124 -93.59209 24002 ft 423 kts 336°
2026-05-07 15:07 37.51942 -93.60336 23998 ft 426 kts 336°
2026-05-07 15:08 37.54765 -93.61475 23998 ft 426 kts 335°
2026-05-07 15:08 37.57579 -93.62642 23994 ft 425 kts 335°
2026-05-07 15:08 37.60389 -93.63787 23999 ft 424 kts 335°
2026-05-07 15:08 37.63203 -93.64920 23990 ft 424 kts 335°
2026-05-07 15:09 37.66013 -93.66061 23999 ft 424 kts 335°
2026-05-07 15:09 37.68823 -93.67213 23989 ft 425 kts 335°
2026-05-07 15:09 37.71645 -93.68347 23983 ft 426 kts 336°
2026-05-07 15:09 37.74466 -93.69474 23993 ft 424 kts 335°
2026-05-07 15:10 37.77258 -93.70681 24005 ft 424 kts 334°
2026-05-07 15:10 37.80060 -93.71846 23993 ft 425 kts 336°
2026-05-07 15:10 37.82892 -93.72949 23996 ft 426 kts 336°
2026-05-07 15:10 37.85720 -93.74060 23997 ft 425 kts 335°
2026-05-07 15:11 37.88523 -93.75257 23993 ft 425 kts 334°
2026-05-07 15:11 37.91329 -93.76447 23994 ft 426 kts 335°
2026-05-07 15:11 37.94109 -93.77591 23994 ft 425 kts 335°
2026-05-07 15:11 37.96929 -93.78710 23990 ft 424 kts 336°
2026-05-07 15:12 37.99734 -93.79848 23991 ft 422 kts 335°
2026-05-07 15:12 38.02518 -93.81014 23992 ft 422 kts 335°
2026-05-07 15:12 38.05311 -93.82177 23991 ft 423 kts 335°
2026-05-07 15:12 38.08118 -93.83322 23990 ft 424 kts 335°
2026-05-07 15:13 38.10921 -93.84469 23988 ft 424 kts 335°
2026-05-07 15:13 38.13724 -93.85631 23988 ft 423 kts 335°
2026-05-07 15:13 38.16523 -93.86792 23987 ft 423 kts 335°
2026-05-07 15:13 38.19309 -93.87940 23747 ft 416 kts 335°
2026-05-07 15:14 38.22000 -93.89040 23184 ft 396 kts 335°
2026-05-07 15:14 38.24569 -93.90102 22671 ft 381 kts 335°
2026-05-07 15:14 38.27073 -93.91155 22174 ft 379 kts 335°
2026-05-07 15:14 38.29593 -93.92208 21661 ft 381 kts 335°
2026-05-07 15:15 38.32113 -93.93246 21169 ft 379 kts 335°
2026-05-07 15:15 38.34609 -93.94277 20661 ft 375 kts 335°
2026-05-07 15:15 38.37072 -93.95302 20176 ft 371 kts 335°
2026-05-07 15:15 38.39486 -93.96310 19692 ft 368 kts 336°
2026-05-07 15:16 38.41907 -93.97318 19211 ft 365 kts 336°
2026-05-07 15:16 38.44317 -93.98319 18729 ft 363 kts 336°
2026-05-07 15:16 38.46708 -93.99317 18229 ft 361 kts 336°
2026-05-07 15:16 38.49081 -94.00307 17741 ft 357 kts 336°
2026-05-07 15:17 38.51439 -94.01289 17267 ft 354 kts 336°
2026-05-07 15:17 38.53771 -94.02263 16803 ft 352 kts 337°
2026-05-07 15:17 38.56094 -94.03235 16386 ft 350 kts 337°
2026-05-07 15:17 38.58403 -94.04202 15950 ft 349 kts 337°
2026-05-07 15:18 38.60707 -94.05165 15500 ft 348 kts 337°
2026-05-07 15:18 38.63000 -94.06124 15043 ft 345 kts 337°
2026-05-07 15:18 38.65267 -94.07073 14591 ft 342 kts 337°
2026-05-07 15:18 38.67465 -94.08167 14131 ft 336 kts 330°
2026-05-07 15:19 38.69463 -94.09669 13669 ft 330 kts 322°
2026-05-07 15:19 38.71246 -94.11492 13235 ft 327 kts 316°
2026-05-07 15:19 38.72968 -94.13360 12807 ft 329 kts 317°
2026-05-07 15:19 38.74730 -94.15237 12369 ft 330 kts 317°
2026-05-07 15:20 38.76499 -94.17139 12063 ft 339 kts 317°
2026-05-07 15:20 38.78337 -94.19132 12061 ft 348 kts 317°
2026-05-07 15:20 38.80194 -94.21127 12041 ft 351 kts 317°
2026-05-07 15:20 38.82065 -94.23136 12045 ft 344 kts 317°
2026-05-07 15:21 38.83811 -94.25010 11981 ft 316 kts 317°
2026-05-07 15:21 38.85517 -94.26864 11832 ft 328 kts 317°
2026-05-07 15:21 38.87260 -94.28751 11641 ft 327 kts 317°
2026-05-07 15:21 38.88996 -94.30617 11435 ft 322 kts 317°
2026-05-07 15:22 38.90675 -94.32381 11225 ft 301 kts 320°
2026-05-07 15:22 38.92326 -94.33868 11029 ft 279 kts 321°
2026-05-07 15:22 38.93856 -94.35284 10848 ft 265 kts 320°
2026-05-07 15:22 38.95341 -94.36679 10675 ft 266 kts 320°
2026-05-07 15:23 38.96859 -94.38082 10503 ft 271 kts 321°
2026-05-07 15:23 38.98400 -94.39500 10332 ft 273 kts 321°
2026-05-07 15:23 38.99935 -94.40917 10153 ft 271 kts 320°
2026-05-07 15:23 39.01438 -94.42308 9972 ft 269 kts 320°
2026-05-07 15:24 39.02956 -94.43714 9790 ft 270 kts 320°
2026-05-07 15:24 39.04474 -94.45121 9601 ft 271 kts 320°
2026-05-07 15:24 39.06001 -94.46538 9415 ft 270 kts 320°
2026-05-07 15:24 39.07546 -94.47966 9236 ft 269 kts 320°
2026-05-07 15:25 39.09064 -94.49306 9060 ft 268 kts 322°
2026-05-07 15:25 39.10613 -94.50630 8886 ft 267 kts 322°
2026-05-07 15:25 39.12153 -94.51965 8708 ft 267 kts 322°
2026-05-07 15:25 39.13698 -94.53307 8534 ft 268 kts 322°
2026-05-07 15:26 39.15250 -94.54646 8355 ft 268 kts 322°
2026-05-07 15:26 39.16796 -94.55979 8180 ft 267 kts 322°
2026-05-07 15:26 39.18335 -94.57310 8000 ft 266 kts 322°
2026-05-07 15:26 39.19835 -94.58606 7833 ft 252 kts 321°
2026-05-07 15:27 39.21247 -94.59825 7666 ft 238 kts 321°
2026-05-07 15:27 39.22669 -94.60830 7508 ft 232 kts 333°
2026-05-07 15:27 39.24213 -94.61349 7335 ft 229 kts 346°
2026-05-07 15:27 39.25812 -94.61399 7192 ft 234 kts 359°
2026-05-07 15:28 39.27426 -94.60990 7031 ft 238 kts
2026-05-07 15:28 39.29035 -94.60501 7002 ft 235 kts
2026-05-07 15:28 39.30641 -94.60041 6998 ft 238 kts
2026-05-07 15:28 39.32264 -94.59555 6999 ft 240 kts
2026-05-07 15:29 39.33896 -94.59061 7002 ft 241 kts
2026-05-07 15:29 39.35532 -94.58573 6995 ft 241 kts
2026-05-07 15:29 39.37155 -94.58088 6880 ft 237 kts
2026-05-07 15:29 39.38769 -94.57600 6566 ft 240 kts
2026-05-07 15:30 39.39848 -94.57283 6385 ft 240 kts
2026-05-07 15:30 39.41465 -94.56800 6111 ft 238 kts
2026-05-07 15:30 39.43603 -94.56158 5720 ft 238 kts
2026-05-07 15:30 39.44687 -94.55835 5519 ft 236 kts
2026-05-07 15:31 39.46664 -94.56270 5180 ft 205 kts 318°
2026-05-07 15:31 39.47461 -94.57661 4882 ft 190 kts 286°
2026-05-07 15:31 39.47715 -94.58759 4637 ft 188 kts 281°
2026-05-07 15:31 39.48059 -94.60395 4317 ft 188 kts 282°
2026-05-07 15:32 39.48403 -94.62021 3966 ft 187 kts 281°
2026-05-07 15:32 39.48742 -94.63658 3587 ft 189 kts 281°
2026-05-07 15:32 39.48764 -94.65298 3291 ft 180 kts 247°
2026-05-07 15:32 39.47967 -94.66486 3286 ft 181 kts 222°
2026-05-07 15:33 39.46791 -94.67200 3293 ft 194 kts 202°
2026-05-07 15:33 39.45500 -94.67749 3328 ft 197 kts 205°
2026-05-07 15:33 39.44259 -94.68413 3293 ft 187 kts 207°
2026-05-07 15:33 39.42975 -94.68902 3111 ft 199 kts 196°
2026-05-07 15:34 39.41627 -94.69276 2850 ft 196 kts 198°
2026-05-07 15:34 39.40309 -94.69687 2630 ft 190 kts 198°
2026-05-07 15:34 39.39122 -94.70027 2404 ft 160 kts 197°
2026-05-07 15:34 39.38078 -94.70335 2390 ft 154 kts 198°
2026-05-07 15:35 39.37037 -94.70649 2403 ft 158 kts 198°
2026-05-07 15:35 39.35938 -94.70983 2298 ft 161 kts 196°
2026-05-07 15:35 39.34861 -94.71208 1946 ft 150 kts 198°
2026-05-07 15:35 39.33857 -94.71551 1573 ft 157 kts 195°
2026-05-07 15:36 39.32793 -94.71880 1173 ft 154 kts 193°
2026-05-07 15:36 39.31941 -94.72146 998 ft 107 kts 201°
2026-05-07 15:36 39.31369 -94.72341 995 ft 64 kts 193°
2026-05-07 15:36 39.31145 -94.72369 997 ft 19 kts 154°
2026-05-07 15:37 39.31122 -94.72296 996 ft 0 kts 100°
2026-05-07 15:37 39.31122 -94.72293 996 ft 4 kts 102°
2026-05-07 15:37 39.31169 -94.72215 995 ft 13 kts 43°
2026-05-07 15:37 39.31230 -94.72102 994 ft 23 kts 17°
2026-05-07 15:38 39.31338 -94.72054 994 ft 14 kts 45°
2026-05-07 15:38 39.31336 -94.71932 996 ft 13 kts 103°
2026-05-07 15:38 39.31356 -94.71851 996 ft 5 kts 36°
2026-05-07 15:38 39.31376 -94.71800 992 ft 5 kts 78°
2026-05-07 15:39 39.31376 -94.71799 992 ft 0 kts 78°